FW2970 Weather Reports


time (UTC)temp
C
wind
direction
speed
KPH
gust
KPH
rain 1hr
cm
rain 24hr
cm
rain mn
cm
humidity
%
barometer
mb
20260505091503 10 218 16.1 20.9 0.00 0.00 0.00 91 1013.2
20260505090008 10 196 11.3 17.7 0.00 0.00 0.00 90 1013.1
20260505084503 10 204 12.9 19.3 0.00 0.00 0.00 90 1013.0
20260505083001 10 206 12.9 32.2 0.00 0.00 0.00 90 1013.2
20260505081502 10 212 11.3 17.7 0.00 0.00 0.00 91 1013.3
20260505080002 10 215 16.1 22.5 0.00 0.00 0.00 91 1013.3
20260505074601 10 212 12.9 17.7 0.00 0.00 0.00 92 1013.5
20260505073102 10 216 12.9 17.7 0.00 0.00 0.00 91 1013.5
20260505071600 10 221 12.9 19.3 0.00 0.00 0.00 90 1013.5
20260505070100 10 203 16.1 25.7 0.00 0.00 0.00 90 1013.5
20260505064558 10 213 17.7 24.1 0.00 0.00 0.00 90 1013.4
20260505063102 11 207 19.3 27.4 0.00 0.00 0.00 89 1013.3
20260505061602 10 208 19.3 29.0 0.00 0.00 0.00 90 1013.4
20260505060056 10 217 19.3 24.1 0.00 0.00 0.00 91 1013.4
20260505054558 10 229 16.1 22.5 0.00 0.00 0.00 91 1013.6
20260505053054 10 226 22.5 32.2 0.00 0.00 0.00 90 1013.5
20260505051554 10 226 22.5 27.4 0.00 0.00 0.00 90 1013.6
20260505050124 10 240 20.9 32.2 0.00 0.00 0.00 90 1013.6
20260505041605 10 218 24.1 32.2 0.00 0.00 0.00 90 1013.6
20260505040059 10 218 20.9 30.6 0.00 0.00 0.00 89 1014.0
20260505034552 10 240 17.7 22.5 0.00 0.00 0.00 89 1014.1
20260505033051 10 228 20.9 30.6 0.00 0.00 0.00 89 1014.2
20260505031551 10 218 19.3 30.6 0.00 0.00 0.00 88 1014.1
20260505030049 10 224 19.3 30.6 0.00 0.00 0.00 87 1014.1
20260505024550 10 221 22.5 32.2 0.00 0.00 0.00 87 1014.2
20260505023051 11 221 20.9 33.8 0.00 0.00 0.00 86 1014.2
20260505021547 11 231 22.5 33.8 0.00 0.00 0.00 85 1014.2
20260505020044 11 217 25.7 38.6 0.00 0.00 0.00 84 1014.0
20260505014602 11 233 25.7 37.0 0.00 0.00 0.00 84 1013.9
20260505013043 11 229 29.0 40.2 0.00 0.00 0.00 83 1013.6
20260505011542 11 217 33.8 45.1 0.00 0.00 0.00 84 1013.2
20260505010042 11 212 38.6 48.3 0.00 0.00 0.00 82 1012.9
20260505004544 11 214 37.0 51.5 0.00 0.00 0.00 81 1012.7
20260505003040 11 208 33.8 41.8 0.00 0.00 0.00 80 1012.6
20260505001547 11 210 29.0 40.2 0.00 0.00 0.00 81 1012.5
20260505000049 11 216 32.2 43.5 0.00 0.00 0.00 80 1012.1
20260504234555 11 215 33.8 41.8 0.00 0.00 0.00 79 1012.1
20260504233040 11 203 37.0 45.1 0.00 0.00 0.00 79 1011.9
20260504231640 11 218 37.0 49.9 0.00 0.00 0.00 78 1011.9
20260504230038 11 226 37.0 46.7 0.00 0.00 0.00 76 1011.9
20260504224543 11 221 37.0 48.3 0.00 0.00 0.00 77 1011.8
20260504223043 11 217 40.2 49.9 0.00 0.00 0.00 76 1011.8
20260504221538 11 217 40.2 51.5 0.00 0.00 0.00 77 1011.8
20260504220037 11 195 38.6 51.5 0.00 0.00 0.00 76 1011.8
20260504214536 11 214 38.6 49.9 0.00 0.00 0.00 77 1011.8
20260504213054 11 221 38.6 59.5 0.00 0.00 0.00 75 1011.8
20260504211538 11 224 40.2 51.5 0.00 0.00 0.00 77 1012.1
20260504210035 11 213 38.6 49.9 0.00 0.00 0.00 75 1012.1
20260504204535 11 222 40.2 49.9 0.00 0.00 0.00 76 1011.9
20260504203036 11 221 35.4 51.5 0.00 0.00 0.00 75 1011.9
20260504201535 11 217 35.4 48.3 0.00 0.00 0.00 76 1011.7
20260504200033 11 212 38.6 53.1 0.00 0.00 0.00 74 1011.8
20260504194531 12 229 37.0 53.1 0.00 0.00 0.00 72 1011.9
20260504193034 12 217 35.4 48.3 0.00 0.00 0.00 70 1012.0
20260504191529 12 212 33.8 48.3 0.00 0.00 0.00 72 1012.1
20260504190128 12 203 33.8 43.5 0.00 0.00 0.00 75 1012.2
20260504184529 12 207 35.4 48.3 0.00 0.00 0.00 75 1012.3
20260504183028 12 216 37.0 48.3 0.00 0.00 0.00 74 1012.3
20260504181527 12 214 37.0 48.3 0.00 0.00 0.00 75 1012.2
20260504180026 12 211 38.6 49.9 0.00 0.00 0.00 75 1012.1
20260504174526 12 219 38.6 53.1 0.00 0.00 0.00 74 1012.1
20260504173034 12 205 32.2 43.5 0.00 0.00 0.00 76 1012.2
20260504171524 11 215 32.2 45.1 0.00 0.00 0.00 78 1012.3
20260504140111 12 241 33.8 41.8 0.00 0.00 0.00 64 1013.3